Flag for United Kingdom Weather past 2 weeks in Middlesbrough, England, United Kingdom

Now
66 °F

Passing clouds.


Feels Like: 66 °F
Forecast: 56 / 68 °F
Wind: 21 mph from Southwest

Location: Tees-Side

Current Time: Aug 28, 2015 at 4:15:10 PM

Latest Report: Aug 28, 2015 at 3:50 PM


Visibility: N/A

Pressure: 29.89 "Hg

Humidity: 46%

Dew point: 45 °F

Location of MiddlesbroughLocation

Historic Weather in Middlesbrough — Graph

°F

Middlesbrough temperature yesterday

Maximum temperature yesterday: 66 °F (at 2:50 PM)
Minimum temperature yesterday: 54 °F (at 6:20 AM)
Average temperature yesterday: 61 °F

Past Weeks' High & Low Weather Summary

 TemperatureHumidityPressure
High77 °F (Aug 23, 1:20 PM)100% (Aug 14, 8:20 AM)30.09 "Hg (Aug 14, 8:20 AM)
Low43 °F (Aug 16, 5:50 AM)43% (Aug 15, 4:50 PM)29.42 "Hg (Aug 26, 6:50 AM)
Average63 °F71%29.80 "Hg
* Reported Aug 13 2:20 PM — Aug 28 2:50 PM, Middlesbrough, Weather by CustomWeather, © 2015

Note: Actual official high and low records may vary slightly from our data, if they occured in-between our weather recording intervals... More about our weather records

Advertising

Middlesbrough weather history for previous 24 hours

 ConditionsComfort  
Time TempWeatherWind HumidityBarometerVisibility
2:50 PM
Fri, Aug 28
68 °FPassing clouds.23 mph43%29.89 "HgN/A
2:20 PM66 °FPassing clouds.23 mph46%29.89 "HgN/A
1:50 PM64 °FPassing clouds.20 mph56%29.89 "HgN/A
1:20 PM64 °FScattered clouds.21 mph52%29.86 "HgN/A
12:50 PM64 °FScattered clouds.15 mph56%29.86 "HgN/A
12:20 PM66 °FScattered clouds.18 mph52%29.86 "HgN/A
11:50 AM64 °FScattered clouds.20 mph52%29.86 "HgN/A
11:20 AM63 °FScattered clouds.15 mph56%29.86 "HgN/A
10:50 AM64 °FPassing clouds.21 mph56%29.86 "HgN/A
10:20 AM63 °FScattered clouds.20 mph59%29.83 "HgN/A
9:50 AM61 °FScattered clouds.16 mph68%29.83 "HgN/A
9:20 AM61 °FPassing clouds.15 mph72%29.83 "HgN/A
8:50 AM59 °FScattered clouds.16 mph77%29.83 "HgN/A
8:20 AM57 °FPassing clouds.13 mph82%29.83 "HgN/A
7:50 AM54 °FPassing clouds.12 mph88%29.80 "HgN/A
7:20 AM54 °FPassing clouds.12 mph88%29.80 "HgN/A
6:50 AM54 °FPassing clouds.14 mph88%29.80 "HgN/A
6:20 AM52 °FPassing clouds.12 mph88%29.77 "HgN/A
5:50 AM54 °FPassing clouds.10 mph88%29.77 "HgN/A
10:50 PM
Thu, Aug 27
54 °FClear.8 mph77%29.71 "Hg10 mi
10:20 PM55 °FClear.2 mph72%29.71 "Hg10 mi
9:50 PM57 °FClear.2 mph72%29.71 "Hg10 mi
9:20 PM59 °FClear.7 mph68%29.68 "Hg10 mi
8:50 PM59 °FSunny.7 mph68%29.68 "Hg10 mi
8:20 PM59 °FSunny.10 mph63%29.65 "Hg10 mi
7:50 PM61 °FSunny.12 mph59%29.65 "Hg10 mi
7:20 PM63 °FPassing clouds.15 mph56%29.65 "HgN/A
6:50 PM63 °FPassing clouds.16 mph52%29.65 "HgN/A
6:20 PM64 °FPassing clouds.18 mph49%29.62 "HgN/A
5:50 PM64 °FPassing clouds.20 mph49%29.62 "HgN/A
5:20 PM64 °FPassing clouds.20 mph46%29.62 "HgN/A
4:50 PM66 °FPassing clouds.22 mph43%29.62 "HgN/A
4:20 PM66 °FPassing clouds.20 mph43%29.62 "HgN/A
Weather by CustomWeather, © 2015

See weather overviewHow to use our weather pages